Wind_Speed
12 12 12 12 12 12 12 13 12 12 12 11 11 11 11 10 10 9 9 9 8 8 8 8 8 7 7 6 5 6 6 5 6 6 5 5 5 6 7 9 9 9
12 12 12 12 11 11 12 13 12 12 12 11 11 11 10 10 9 9 9 9 8 8 8 8 8 8 7 7 6 6 6 5 5 5 5 5 5 5 5 6 7 9
11 11 11 11 12 12 12 12 12 11 11 11 11 10 10 9 9 9 9 8 8 7 7 8 8 8 8 7 7 7 6 5 5 5 5 5 5 5 4 4 5 6
10 11 11 11 11 11 10 11 11 11 11 11 11 10 10 9 9 8 8 8 8 7 7 7 7 8 8 7 7 6 5 5 5 5 4 4 4 4 5 5 4 5
11 11 11 10 10 10 10 10 9 10 10 10 10 9 9 9 8 8 8 8 8 7 7 6 7 7 7 7 6 6 5 5 5 4 3 4 4 4 5 5 5 5
12 11 10 10 10 10 10 9 9 9 10 9 8 8 8 8 8 8 8 8 8 7 7 6 6 6 6 6 6 6 5 4 4 4 4 4 4 4 4 4 5 5
12 11 11 11 10 10 10 10 9 9 9 8 8 8 8 7 7 8 8 8 7 7 7 6 6 6 6 6 5 5 5 4 4 4 4 4 4 3 3 3 4 4
13 12 11 11 11 10 11 10 9 9 9 9 8 8 8 7 7 8 8 8 7 7 7 6 6 6 6 6 6 5 5 4 4 3 3 3 3 3 3 3 3 4
14 13 13 12 12 11 11 11 11 11 10 9 9 8 8 8 7 8 8 7 7 6 6 6 6 6 6 6 6 5 5 4 4 3 3 3 3 3 3 3 3 4
15 15 14 13 13 12 12 12 12 12 11 10 10 9 8 8 8 8 7 7 7 6 6 6 6 6 6 6 6 6 5 4 4 4 3 3 3 3 3 3 4 4
15 15 15 14 14 13 12 12 12 12 11 11 11 10 9 9 9 9 8 8 7 7 8 7 7 7 7 7 7 6 6 6 5 5 4 4 4 4 4 4 4 5
14 14 14 14 14 14 13 13 13 12 12 12 12 11 11 10 10 10 9 9 9 8 9 9 9 9 8 8 8 8 7 7 7 6 6 5 5 5 5 5 5 6
14 14 14 13 13 13 13 13 13 13 13 13 12 13 13 12 12 11 10 11 11 10 10 10 10 10 10 10 10 9 9 8 8 8 7 7 7 6 6 6 7 7
14 14 14 13 13 13 13 13 14 14 13 13 13 13 13 13 13 12 12 12 12 12 11 11 11 11 11 11 11 11 11 10 9 9 9 9 8 8 7 8 9 9
15 15 15 15 14 13 13 13 13 14 15 15 15 15 14 14 14 13 13 13 13 12 12 12 12 11 11 12 12 12 12 11 10 10 10 10 10 9 9 9 10 10
16 16 16 16 16 15 14 14 14 14 14 15 16 16 16 16 16 14 14 14 13 12 13 13 13 12 12 13 13 13 12 12 12 12 11 11 11 11 10 11 11 12
18 17 17 17 17 16 16 16 16 15 15 15 15 15 15 17 17 17 16 16 15 15 16 16 15 14 13 14 14 13 13 13 13 13 13 13 13 13 12 12 13 13
20 19 19 19 19 19 18 18 18 16 16 17 17 15 15 16 17 18 19 19 18 19 19 17 16 16 16 16 15 14 14 14 14 15 15 15 15 14 14 14 14 14
21 20 21 21 21 20 19 20 21 21 20 20 19 18 17 17 17 18 19 19 20 20 19 17 16 16 17 16 16 15 15 15 16 17 17 17 17 16 16 17 17 16
21 21 23 23 21 20 19 20 21 21 21 20 20 20 20 19 19 19 19 19 20 19 19 18 17 17 16 16 15 15 15 16 17 19 19 19 18 19 19 19 19 19
22 21 22 22 22 22 22 22 22 21 21 21 21 21 21 21 21 21 21 21 21 20 20 19 19 18 18 17 16 16 16 16 17 18 19 19 19 20 21 20 20 20
26 24 23 22 24 24 24 24 23 22 22 22 22 22 22 23 23 24 24 24 24 24 23 22 21 21 20 20 19 19 18 18 18 19 19 20 21 21 21 20 19 20
29 29 27 27 27 26 26 25 24 23 24 25 25 25 26 26 26 26 26 26 26 26 25 25 24 24 23 23 23 23 22 22 22 23 22 23 23 24 23 22 21 21
30 29 28 28 29 29 27 27 26 27 27 27 28 29 29 29 29 29 29 28 28 28 27 27 27 26 26 26 26 27 27 26 26 26 26 26 27 27 26 25 24 24
31 30 29 29 29 30 29 28 29 30 29 27 28 30 32 31 31 31 30 29 29 29 28 28 28 28 28 29 29 29 30 29 29 29 29 29 29 29 28 27 27 26
30 30 29 28 29 30 30 30 31 31 28 26 26 28 30 31 32 32 31 29 28 28 28 27 28 29 30 30 30 31 31 30 30 30 30 29 29 28 28 28 26 25
Wind_Direction
178 179 181 181 185 184 179 180 181 179 179 181 182 182 180 179 182 187 188 183 182 183 180 183 183 177 174 168 166 171 177 179 172 170 175 172 185 200 201 204 205 210
183 180 182 181 183 185 183 184 184 182 181 182 184 186 185 181 181 187 192 191 190 189 185 186 188 187 187 181 176 181 183 178 175 176 176 174 182 192 204 212 212 218
186 183 184 182 184 187 186 186 187 187 185 184 186 190 189 187 186 188 193 196 195 192 190 191 193 193 196 196 193 195 194 183 182 187 186 188 193 194 206 220 222 230
189 187 188 188 188 187 186 188 191 191 189 188 188 190 191 192 193 192 195 198 196 194 194 195 198 199 200 204 204 205 206 198 198 200 197 204 208 210 223 230 229 236
197 195 193 193 191 188 189 193 194 194 193 193 191 190 193 195 197 196 196 198 197 198 201 199 200 203 204 207 209 210 212 207 210 218 215 220 226 232 241 244 243 243
202 201 197 197 195 191 193 196 196 195 196 194 189 188 194 197 197 197 195 196 199 200 203 205 206 207 207 209 210 215 219 214 217 224 220 220 222 231 245 249 247 249
205 204 202 201 199 196 195 196 196 196 195 193 186 184 191 194 198 199 195 195 197 198 200 205 208 210 212 213 213 219 225 226 231 230 225 229 230 229 241 249 250 253
207 205 203 202 203 202 198 197 197 196 197 196 190 187 187 188 194 198 196 197 199 198 198 203 207 210 214 215 217 220 221 226 237 238 236 243 247 244 243 246 250 254
208 206 205 205 205 207 206 204 200 198 202 202 197 196 194 192 193 194 195 199 200 197 196 202 208 211 217 220 221 223 223 223 228 231 234 238 245 250 250 246 245 249
209 207 207 207 208 209 211 212 208 205 207 208 207 206 205 203 201 198 199 200 198 198 200 204 211 214 218 222 224 226 229 231 230 230 233 239 249 256 256 251 244 246
211 210 209 209 210 212 214 216 216 214 214 214 216 217 215 215 214 209 208 207 205 207 208 208 213 216 220 225 228 228 229 232 234 233 233 238 248 255 258 256 252 252
213 214 213 212 213 214 215 218 220 220 220 219 220 221 220 222 224 223 219 217 216 218 222 222 221 221 224 228 232 234 233 234 237 234 233 236 244 252 256 253 254 258
216 216 216 215 216 217 218 220 222 221 223 225 226 225 224 224 226 227 225 227 226 225 228 232 232 230 231 233 235 238 239 240 242 242 239 238 242 249 252 252 254 258
216 218 218 218 218 219 221 224 225 223 222 226 230 230 230 229 230 229 229 232 235 234 234 236 238 238 238 242 243 243 244 244 245 247 246 244 244 246 249 252 255 257
219 219 220 222 222 221 224 229 233 231 226 226 230 233 233 233 235 236 234 233 234 239 243 242 241 241 241 243 245 246 247 245 244 246 248 249 249 248 249 253 258 262
221 222 222 225 225 223 224 228 236 240 236 232 231 231 233 235 237 237 238 236 232 236 244 243 241 242 243 243 243 244 245 243 242 245 247 248 251 252 253 256 261 266
222 224 225 227 228 225 223 226 234 243 247 243 236 229 226 231 236 236 236 237 235 235 241 244 244 244 244 245 244 244 246 248 248 249 248 248 250 252 253 255 258 261
227 227 227 227 227 224 220 220 224 231 237 241 240 233 223 224 233 237 237 237 237 238 240 244 248 249 248 249 250 250 252 253 253 253 252 252 252 253 254 254 255 257
234 232 231 230 229 229 227 223 222 224 228 235 241 243 237 231 234 240 244 245 245 246 247 246 248 249 250 252 254 255 255 251 250 252 254 255 255 256 256 256 257 259
238 237 236 234 232 234 237 237 234 231 232 236 240 245 247 245 243 243 246 249 250 252 254 253 252 252 253 253 253 254 255 253 251 252 253 255 256 256 256 257 259 262
244 245 244 240 235 236 238 241 242 241 242 242 242 247 252 255 255 252 249 250 251 252 254 256 255 255 256 257 257 257 257 257 256 255 255 258 258 256 257 258 262 264
244 248 250 246 241 239 239 241 244 246 248 246 244 247 252 256 258 257 255 253 251 251 253 255 257 257 257 259 259 259 259 260 260 258 258 260 261 262 262 261 263 266
244 247 248 246 244 245 245 247 248 247 246 246 247 250 253 255 257 258 258 256 254 253 252 253 255 258 259 261 262 262 263 264 266 264 262 260 260 261 264 265 266 268
246 245 245 243 243 245 246 248 250 248 248 250 253 256 256 257 258 260 260 258 255 254 253 252 252 253 256 259 260 262 264 265 267 267 265 262 258 259 263 266 267 269
254 251 247 245 244 244 244 247 250 251 252 256 259 260 258 259 261 262 263 262 257 254 252 251 250 252 255 257 257 258 260 262 263 264 265 264 261 259 260 261 263 267
262 256 249 247 249 249 249 251 252 251 251 254 259 260 260 260 262 262 259 258 256 253 251 249 248 250 254 256 255 255 256 258 261 262 263 263 261 259 257 256 259 264
Height
3238 3239 3240 3241 3242 3243 3244 3245 3246 3247 3249 3250 3251 3252 3253 3254 3254 3255 3256 3257 3257 3258 3259 3260 3260 3261 3261 3262 3262 3263 3264 3264 3264 3265 3265 3265 3266 3267 3267 3268 3268 3268
3238 3239 3240 3241 3242 3243 3244 3245 3246 3247 3248 3249 3250 3251 3252 3253 3254 3255 3256 3257 3257 3258 3259 3259 3260 3261 3261 3262 3262 3263 3263 3264 3264 3265 3265 3265 3266 3267 3267 3267 3268 3268
3238 3239 3240 3241 3242 3242 3244 3245 3246 3247 3248 3249 3250 3251 3252 3253 3254 3254 3255 3256 3257 3258 3258 3259 3260 3260 3261 3262 3262 3263 3263 3263 3264 3264 3265 3265 3266 3266 3267 3267 3267 3267
3237 3238 3239 3241 3241 3242 3243 3244 3246 3247 3248 3249 3249 3250 3251 3252 3253 3254 3255 3256 3256 3257 3258 3259 3259 3260 3261 3261 3262 3263 3263 3263 3264 3264 3264 3265 3265 3266 3266 3266 3267 3267
3237 3238 3239 3240 3241 3242 3243 3244 3245 3246 3247 3248 3249 3250 3251 3252 3253 3254 3255 3255 3256 3257 3257 3258 3259 3260 3260 3261 3262 3262 3263 3263 3263 3263 3264 3264 3264 3265 3265 3265 3265 3266
3236 3238 3239 3240 3241 3242 3243 3244 3245 3246 3247 3248 3249 3250 3251 3252 3253 3253 3254 3255 3256 3256 3257 3258 3258 3259 3260 3260 3261 3261 3262 3263 3263 3263 3263 3264 3264 3264 3264 3264 3264 3265
3236 3237 3238 3239 3240 3241 3243 3244 3245 3246 3247 3248 3249 3249 3250 3251 3252 3253 3254 3254 3255 3256 3256 3257 3258 3258 3259 3260 3260 3261 3261 3262 3262 3263 3263 3263 3263 3263 3263 3264 3264 3264
3235 3237 3238 3239 3240 3241 3242 3243 3245 3246 3247 3247 3248 3249 3250 3250 3251 3252 3253 3254 3254 3255 3256 3257 3257 3258 3259 3259 3260 3260 3261 3261 3261 3262 3262 3262 3263 3263 3263 3263 3263 3263
3234 3236 3237 3238 3239 3241 3242 3243 3244 3245 3246 3247 3247 3248 3249 3250 3250 3251 3252 3253 3254 3255 3255 3256 3257 3257 3258 3259 3259 3260 3260 3260 3261 3261 3261 3262 3262 3262 3262 3262 3262 3262
3233 3235 3236 3238 3239 3240 3241 3242 3243 3244 3245 3246 3247 3247 3248 3249 3249 3250 3251 3252 3253 3254 3254 3255 3256 3256 3257 3258 3258 3259 3259 3260 3260 3260 3261 3261 3261 3261 3261 3262 3262 3261
3232 3234 3235 3236 3238 3239 3240 3241 3242 3243 3244 3245 3245 3246 3247 3248 3249 3249 3250 3251 3252 3252 3253 3254 3255 3255 3256 3257 3257 3258 3258 3259 3259 3259 3260 3260 3260 3261 3261 3261 3261 3261
3232 3233 3234 3235 3237 3238 3239 3240 3241 3242 3243 3244 3244 3245 3246 3247 3248 3248 3249 3250 3250 3251 3252 3252 3253 3254 3254 3255 3256 3256 3257 3257 3258 3258 3259 3259 3259 3259 3259 3260 3260 3260
3231 3232 3233 3235 3236 3237 3238 3239 3240 3241 3242 3242 3243 3244 3245 3245 3246 3247 3247 3248 3249 3249 3250 3251 3251 3252 3253 3253 3254 3255 3255 3256 3256 3257 3257 3258 3258 3258 3258 3258 3258 3258
3230 3231 3232 3233 3234 3236 3236 3237 3238 3239 3240 3240 3241 3242 3243 3244 3244 3245 3246 3246 3247 3247 3248 3249 3250 3251 3251 3252 3253 3253 3254 3254 3255 3255 3256 3256 3257 3257 3257 3257 3257 3257
3229 3230 3231 3232 3233 3234 3235 3235 3236 3237 3238 3239 3239 3240 3241 3242 3242 3243 3244 3245 3246 3245 3246 3247 3248 3249 3249 3250 3251 3251 3252 3252 3253 3253 3254 3255 3255 3255 3255 3255 3255 3255
3228 3228 3229 3230 3231 3232 3233 3234 3234 3235 3236 3237 3238 3239 3239 3240 3240 3241 3242 3243 3244 3244 3244 3245 3246 3247 3247 3248 3249 3249 3250 3250 3251 3251 3252 3252 3253 3253 3253 3253 3254 3253
3225 3226 3227 3228 3228 3230 3231 3231 3232 3233 3233 3234 3235 3237 3237 3237 3238 3239 3240 3240 3241 3241 3242 3242 3244 3245 3246 3246 3247 3247 3248 3248 3249 3249 3250 3250 3251 3251 3251 3251 3251 3251
3223 3224 3224 3224 3225 3226 3227 3228 3229 3230 3231 3232 3233 3234 3235 3236 3236 3236 3236 3237 3238 3238 3239 3240 3242 3243 3244 3245 3245 3246 3246 3247 3247 3247 3247 3248 3248 3248 3249 3249 3249 3249
3221 3221 3221 3221 3222 3223 3224 3225 3225 3226 3227 3229 3231 3232 3233 3234 3234 3235 3235 3235 3235 3236 3237 3238 3240 3241 3242 3243 3244 3244 3245 3245 3245 3245 3245 3246 3246 3246 3246 3246 3246 3247
3217 3218 3218 3219 3220 3221 3222 3223 3223 3224 3226 3227 3229 3230 3231 3232 3233 3233 3233 3233 3234 3234 3235 3236 3237 3238 3239 3240 3241 3242 3242 3242 3242 3242 3242 3243 3243 3243 3243 3243 3244 3245
3212 3214 3215 3216 3217 3217 3218 3219 3221 3223 3225 3225 3225 3226 3228 3229 3230 3231 3231 3232 3232 3232 3233 3233 3234 3235 3236 3237 3237 3238 3239 3239 3240 3240 3240 3240 3240 3240 3240 3241 3242 3242
3208 3209 3211 3212 3212 3213 3214 3215 3218 3220 3222 3222 3222 3224 3225 3226 3227 3227 3229 3229 3229 3230 3230 3231 3231 3232 3233 3234 3234 3235 3236 3236 3237 3237 3237 3237 3237 3237 3237 3238 3239 3239
3203 3204 3205 3205 3207 3208 3209 3211 3213 3216 3217 3218 3219 3221 3222 3223 3224 3224 3225 3226 3226 3227 3227 3228 3229 3229 3230 3231 3231 3232 3232 3233 3233 3234 3234 3234 3234 3234 3234 3235 3236 3236
3198 3198 3199 3200 3201 3202 3204 3206 3208 3210 3212 3214 3216 3217 3219 3220 3221 3221 3222 3222 3223 3223 3224 3225 3225 3226 3227 3227 3228 3228 3228 3229 3229 3229 3230 3230 3230 3231 3231 3232 3232 3233
3193 3193 3194 3196 3197 3198 3200 3201 3202 3204 3208 3211 3212 3213 3214 3215 3217 3217 3217 3218 3218 3219 3220 3221 3221 3222 3223 3224 3224 3224 3224 3224 3225 3225 3226 3226 3226 3227 3227 3228 3229 3229
3190 3190 3191 3192 3194 3195 3197 3198 3199 3201 3205 3207 3208 3208 3209 3210 3210 3211 3212 3213 3213 3214 3215 3216 3217 3218 3219 3219 3220 3220 3220 3220 3221 3221 3221 3222 3222 3222 3222 3223 3225 3226